Location: ?????????
(54.7630°N, 39.4991°E)
Time: 11:39:18
(UTC+00:00)

ADEOS - Pass Details

Date: 14 April 2026
Orbit: 790 x 791 km, 98.8° (Epoch: 10 May)

Event Time Altitude Azimuth Distance (km) Brightness Sun altitude
Exits shadow 17:22:31 - 159° (SSE) 2,971 6.1 -8.6°
Reaches altitude 10° 17:24:03 10° 159° (SSE) 2,355 5.6 -8.7°
Maximum altitude 17:29:16 85° 71° (ENE) 803 3.6 -9.4°
Drops below altitude 10° 17:34:31 10° 344° (NNW) 2,371 6.8 -10.0°
Sets 17:36:51 0° 344° (NNW) 3,305 7.6 -10.3°
